Terminal Aerodrome Forecast
Issued by NWS St Louis, MO

Home | Current Version | Previous Version | Text Only | Print | Product List | Glossary On
Versions: 1 2 3 4 5 6 7 8 9 10 11 12 13 14 15 16 17 18 19 20 21 22 23 24 25 26 27 28 29
000
FTUS43 KLSX 282300
TAFSTL
TAF
KSTL 282337Z 2900/3006 16009KT P6SM BKN250
     FM290300 18009KT P6SM BKN250 WS017/24040KT
     FM290900 19010KT P6SM BKN015 WS017/24040KT
     FM291500 20012KT P6SM BKN015
     FM291800 20012KT P6SM SCT015=

USA.gov is the U.S. government's official web portal to all federal, state and local government web resources and services.